Weather in Partizanskaya

Russia / Pskov Oblast     58°27′14″N   28°03′13″E
temp.,
°C
wind,
m/s
gust,
m/s
humid.,
%
clouds,
%
prec.,
mm/h
press.,
hPa
HPBL,
m
27 november, sat
sat2700:00+1ese2698100 2.1 1000461
03:00+2s1698100 3.0 1000527
06:00+1ene2498100 0.3 1001200
09:000ne4896100 0.4 1001332
12:00−1ne51192100 0.2 1001471
15:00−1ne61390100 0.3 999534
18:00−2ne61593100 0.4 998582
21:00−3ne61692100 1.0 997631
28 november, sun
sun2800:00−3nne51492100 0.3 997655
03:00−2ne51289100 0.8 997676
06:00−3nne31095100 1.0 997598
09:00−2nne3895100 2.1 999540
12:00−2n368977 0.7 1000498
15:00−2nne2589100 0.8 1002389
18:00−4ne3795100 0.1 1003213
21:00−5ene2695100 0.1 1005214
29 november, mon
mon2900:00−6ene379698 0.0 1006217
03:00−5ene3892100 0.1 1005309
06:00−5ene4991100 0.0 1004350
09:00−5ene41089100 0.0 1003334
12:00−4ne51189100 0.1 1001379
15:00−4ne51390100 0.4 997459
18:00−4ne51391100 0.3 994485
21:00−4ne51391100 1.0 990488
30 november, tue
tue3000:00−4nne51294100 0.6 987506
03:00−4nne51195100 3.1 983526
06:00−3nne51195100 3.7 981641
09:00−3n51195100 7.8 981769
12:00−4nnw51194100 3.4 982694
15:00−4nnw51095100 6.4 9821075
18:00−4nw61094100 1.9 984953
21:00−4nw61093100 3.3 985976
1 december, wed
wed100:00−4nw61083100 0.4 987852
03:00−4nw51080100 0.5 989760
06:00−4wnw51081100 0.2 991704
09:00−5wnw51082100 0.3 993631
12:00−5wnw488299 0.0 995608
15:00−5wnw378289 0.1 996261
18:00−10wsw229389 0.0 99826
21:00−12s229759 0.0 99734